Time,TemperatureF,DewpointF,PressureIn,WindDirection,WindDirectionDegrees,WindSpeedMPH,WindSpeedGustMPH,Humidity,HourlyPrecipIn,Conditions,Clouds,dailyrainin,SoftwareType,DateUTC
2013-06-15 00:01:00,53.6,49.5,30.09,North,359,1.0,4.0,86,0.00,,,0.00,WUHU216DAVISVP2,2013-06-15 07:01:00,
2013-06-15 00:06:00,53.4,49.6,30.09,North,5,1.0,4.0,87,0.00,,,0.00,WUHU216DAVISVP2,2013-06-15 07:06:00,
2013-06-15 00:11:00,53.2,49.4,30.09,NNE,20,0.0,3.0,87,0.00,,,0.00,WUHU216DAVISVP2,2013-06-15 07:11:00,
2013-06-15 00:16:00,53.0,49.2,30.09,North,359,0.0,2.0,87,0.00,,,0.00,WUHU216DAVISVP2,2013-06-15 07:16:00,
2013-06-15 00:21:00,52.9,49.4,30.09,North,4,0.0,2.0,88,0.00,,,0.00,WUHU216DAVISVP2,2013-06-15 07:21:00,
2013-06-15 00:26:00,52.8,49.3,30.09,North,10,0.0,2.0,88,0.00,,,0.00,WUHU216DAVISVP2,2013-06-15 07:26:00,
2013-06-15 00:31:00,52.6,49.4,30.09,North,8,0.0,2.0,89,0.00,,,0.00,WUHU216DAVISVP2,2013-06-15 07:31:00,
2013-06-15 00:36:00,52.4,49.2,30.09,North,8,0.0,2.0,89,0.00,,,0.00,WUHU216DAVISVP2,2013-06-15 07:36:00,
2013-06-15 00:41:00,52.3,49.1,30.08,NNE,20,0.0,2.0,89,0.00,,,0.00,WUHU216DAVISVP2,2013-06-15 07:41:00,
2013-06-15 00:46:00,52.2,49.3,30.08,North,357,1.0,2.0,90,0.00,,,0.00,WUHU216DAVISVP2,2013-06-15 07:46:00,
2013-06-15 00:51:00,52.1,49.2,30.08,NNW,341,0.0,2.0,90,0.00,,,0.00,WUHU216DAVISVP2,2013-06-15 07:51:00,
2013-06-15 00:56:00,51.9,49.0,30.08,NNW,341,0.0,2.0,90,0.00,,,0.00,WUHU216DAVISVP2,2013-06-15 07:56:00,
2013-06-15 01:01:00,51.8,49.0,30.08,North,5,0.0,2.0,90,0.00,,,0.00,WUHU216DAVISVP2,2013-06-15 08:01:00,
2013-06-15 01:06:00,51.7,48.8,30.08,North,9,0.0,2.0,90,0.00,,,0.00,WUHU216DAVISVP2,2013-06-15 08:06:00,
2013-06-15 01:11:00,51.6,49.0,30.07,North,9,0.0,2.0,91,0.00,,,0.00,WUHU216DAVISVP2,2013-06-15 08:11:00,
2013-06-15 01:16:00,51.6,49.0,30.07,NNE,30,1.0,2.0,91,0.00,,,0.00,WUHU216DAVISVP2,2013-06-15 08:16:00,
2013-06-15 01:21:00,51.6,49.0,30.07,North,5,0.0,3.0,91,0.00,,,0.00,WUHU216DAVISVP2,2013-06-15 08:21:00,
2013-06-15 01:26:00,51.5,48.9,30.07,North,354,1.0,3.0,91,0.00,,,0.00,WUHU216DAVISVP2,2013-06-15 08:26:00,
2013-06-15 01:31:00,51.5,48.9,30.07,ENE,75,0.0,2.0,91,0.00,,,0.00,WUHU216DAVISVP2,2013-06-15 08:31:00,
2013-06-15 01:36:00,51.5,48.9,30.06,NNE,13,1.0,2.0,91,0.00,,,0.00,WUHU216DAVISVP2,2013-06-15 08:36:00,
2013-06-15 01:41:00,51.4,48.9,30.06,NNE,15,1.0,2.0,91,0.00,,,0.00,WUHU216DAVISVP2,2013-06-15 08:41:00,
2013-06-15 01:46:00,51.3,48.7,30.06,North,360,0.0,2.0,91,0.00,,,0.00,WUHU216DAVISVP2,2013-06-15 08:46:00,
2013-06-15 01:51:00,51.3,49.0,30.06,NNW,347,2.0,4.0,92,0.00,,,0.00,WUHU216DAVISVP2,2013-06-15 08:51:00,
2013-06-15 01:56:00,51.3,48.7,30.06,NNE,16,0.0,4.0,91,0.00,,,0.00,WUHU216DAVISVP2,2013-06-15 08:56:00,
2013-06-15 02:01:00,51.2,48.9,30.05,NNW,348,0.0,4.0,92,0.00,,,0.00,WUHU216DAVISVP2,2013-06-15 09:01:00,
2013-06-15 02:06:00,51.1,48.8,30.05,North,8,0.0,6.0,92,0.00,,,0.00,WUHU216DAVISVP2,2013-06-15 09:06:00,
2013-06-15 02:11:00,51.1,48.8,30.05,NE,46,0.0,6.0,92,0.00,,,0.00,WUHU216DAVISVP2,2013-06-15 09:11:00,
2013-06-15 02:16:00,51.1,48.8,30.05,North,11,0.0,5.0,92,0.00,,,0.00,WUHU216DAVISVP2,2013-06-15 09:16:00,
2013-06-15 02:21:00,51.0,48.4,30.05,WNW,298,0.0,5.0,91,0.00,,,0.00,WUHU216DAVISVP2,2013-06-15 09:21:00,
2013-06-15 02:26:00,51.0,48.4,30.05,NE,39,0.0,5.0,91,0.00,,,0.00,WUHU216DAVISVP2,2013-06-15 09:26:00,
2013-06-15 02:31:00,50.9,48.3,30.05,NNE,23,0.0,5.0,91,0.00,,,0.00,WUHU216DAVISVP2,2013-06-15 09:31:00,
2013-06-15 02:36:00,50.9,48.3,30.05,NNE,22,0.0,4.0,91,0.00,,,0.00,WUHU216DAVISVP2,2013-06-15 09:36:00,
2013-06-15 02:41:00,50.8,48.3,30.05,North,356,1.0,4.0,91,0.00,,,0.00,WUHU216DAVISVP2,2013-06-15 09:41:00,
2013-06-15 02:46:00,50.8,48.5,30.05,North,354,0.0,3.0,92,0.00,,,0.00,WUHU216DAVISVP2,2013-06-15 09:46:00,
2013-06-15 02:51:00,50.8,48.5,30.05,NNE,15,0.0,3.0,92,0.00,,,0.00,WUHU216DAVISVP2,2013-06-15 09:51:00,
2013-06-15 02:56:00,50.9,48.6,30.05,NNW,340,2.0,5.0,92,0.00,,,0.00,WUHU216DAVISVP2,2013-06-15 09:56:00,
2013-06-15 03:01:00,51.0,48.4,30.04,North,357,1.0,6.0,91,0.00,,,0.00,WUHU216DAVISVP2,2013-06-15 10:01:00,
2013-06-15 03:06:00,51.0,48.4,30.04,North,6,0.0,6.0,91,0.00,,,0.00,WUHU216DAVISVP2,2013-06-15 10:06:00,
2013-06-15 03:11:00,51.0,48.4,30.04,NNE,16,2.0,6.0,91,0.00,,,0.00,WUHU216DAVISVP2,2013-06-15 10:11:00,
2013-06-15 03:16:00,51.0,48.4,30.05,NNE,27,0.0,5.0,91,0.00,,,0.00,WUHU216DAVISVP2,2013-06-15 10:16:00,
2013-06-15 03:21:00,50.9,48.0,30.05,NW,324,0.0,4.0,90,0.00,,,0.00,WUHU216DAVISVP2,2013-06-15 10:21:00,
2013-06-15 03:26:00,50.8,47.9,30.04,NW,324,0.0,4.0,90,0.00,,,0.00,WUHU216DAVISVP2,2013-06-15 10:26:00,
2013-06-15 03:31:00,50.5,47.9,30.04,NW,324,0.0,3.0,91,0.00,,,0.00,WUHU216DAVISVP2,2013-06-15 10:31:00,
2013-06-15 03:36:00,50.5,47.9,30.04,NE,47,0.0,2.0,91,0.00,,,0.00,WUHU216DAVISVP2,2013-06-15 10:36:00,
2013-06-15 03:41:00,50.5,48.2,30.04,North,359,0.0,2.0,92,0.00,,,0.00,WUHU216DAVISVP2,2013-06-15 10:41:00,
2013-06-15 03:46:00,50.6,48.3,30.04,NNW,347,0.0,2.0,92,0.00,,,0.00,WUHU216DAVISVP2,2013-06-15 10:46:00,
2013-06-15 03:51:00,50.6,48.3,30.04,North,4,1.0,2.0,92,0.00,,,0.00,WUHU216DAVISVP2,2013-06-15 10:51:00,
2013-06-15 03:56:00,50.7,48.4,30.04,NNE,12,1.0,3.0,92,0.00,,,0.00,WUHU216DAVISVP2,2013-06-15 10:56:00,
2013-06-15 04:01:00,50.6,48.1,30.04,North,4,0.0,3.0,91,0.00,,,0.00,WUHU216DAVISVP2,2013-06-15 11:01:00,
2013-06-15 04:06:00,50.6,48.4,30.04,North,3,0.0,3.0,92,0.00,,,0.00,WUHU216DAVISVP2,2013-06-15 11:06:00,
2013-06-15 04:11:00,50.6,48.3,30.03,North,360,0.0,3.0,92,0.00,,,0.00,WUHU216DAVISVP2,2013-06-15 11:11:00,
2013-06-15 04:16:00,50.5,48.2,30.03,North,360,0.0,3.0,92,0.00,,,0.00,WUHU216DAVISVP2,2013-06-15 11:16:00,
2013-06-15 04:21:00,50.4,48.1,30.03,North,4,0.0,3.0,92,0.00,,,0.00,WUHU216DAVISVP2,2013-06-15 11:21:00,
2013-06-15 04:26:00,50.3,48.0,30.03,North,351,0.0,2.0,92,0.00,,,0.00,WUHU216DAVISVP2,2013-06-15 11:26:00,
2013-06-15 04:31:00,50.2,47.9,30.03,North,354,1.0,2.0,92,0.00,,,0.00,WUHU216DAVISVP2,2013-06-15 11:31:00,
2013-06-15 04:36:00,50.1,47.8,30.03,North,3,0.0,2.0,92,0.00,,,0.00,WUHU216DAVISVP2,2013-06-15 11:36:00,
2013-06-15 04:41:00,50.0,47.7,30.03,NNE,13,0.0,2.0,92,0.00,,,0.00,WUHU216DAVISVP2,2013-06-15 11:41:00,
2013-06-15 04:46:00,49.9,47.6,30.03,NNE,13,0.0,1.0,92,0.00,,,0.00,WUHU216DAVISVP2,2013-06-15 11:46:00,
2013-06-15 04:51:00,49.8,47.8,30.03,NNE,20,0.0,1.0,93,0.00,,,0.00,WUHU216DAVISVP2,2013-06-15 11:51:00,
2013-06-15 04:56:00,49.7,47.7,30.03,North,8,0.0,1.0,93,0.00,,,0.00,WUHU216DAVISVP2,2013-06-15 11:56:00,
2013-06-15 05:01:00,49.7,47.7,30.03,NNW,348,0.0,1.0,93,0.00,,,0.00,WUHU216DAVISVP2,2013-06-15 12:01:00,
2013-06-15 05:06:00,49.9,48.2,30.03,NE,34,2.0,4.0,94,0.00,,,0.00,WUHU216DAVISVP2,2013-06-15 12:06:00,
2013-06-15 05:11:00,50.0,48.3,30.03,North,354,2.0,4.0,94,0.00,,,0.00,WUHU216DAVISVP2,2013-06-15 12:11:00,
2013-06-15 05:16:00,50.0,48.3,30.03,NNE,15,0.0,4.0,94,0.00,,,0.00,WUHU216DAVISVP2,2013-06-15 12:16:00,
2013-06-15 05:21:00,50.1,48.4,30.02,North,11,0.0,4.0,94,0.00,,,0.00,WUHU216DAVISVP2,2013-06-15 12:21:00,
2013-06-15 05:26:00,50.1,48.4,30.02,NNE,18,2.0,7.0,94,0.00,,,0.00,WUHU216DAVISVP2,2013-06-15 12:26:00,
2013-06-15 05:31:00,50.3,48.6,30.02,North,6,2.0,7.0,94,0.00,,,0.00,WUHU216DAVISVP2,2013-06-15 12:31:00,
2013-06-15 05:36:00,50.4,48.7,30.02,North,1,0.0,6.0,94,0.00,,,0.00,WUHU216DAVISVP2,2013-06-15 12:36:00,
2013-06-15 05:41:00,50.4,48.7,30.02,NNE,23,1.0,8.0,94,0.00,,,0.00,WUHU216DAVISVP2,2013-06-15 12:41:00,
2013-06-15 05:46:00,50.5,48.8,30.02,NNE,29,0.0,8.0,94,0.00,,,0.00,WUHU216DAVISVP2,2013-06-15 12:46:00,
2013-06-15 05:51:00,50.6,48.6,30.02,North,11,2.0,8.0,93,0.00,,,0.00,WUHU216DAVISVP2,2013-06-15 12:51:00,
2013-06-15 05:56:00,50.7,48.7,30.02,North,355,2.0,8.0,93,0.00,,,0.00,WUHU216DAVISVP2,2013-06-15 12:56:00,
2013-06-15 06:01:00,50.8,48.8,30.02,NNW,343,3.0,8.0,93,0.00,,,0.00,WUHU216DAVISVP2,2013-06-15 13:01:00,
2013-06-15 06:06:00,50.9,48.9,30.02,NNW,333,3.0,8.0,93,0.00,,,0.00,WUHU216DAVISVP2,2013-06-15 13:06:00,
2013-06-15 06:11:00,51.0,49.0,30.02,North,356,4.0,7.0,93,0.00,,,0.00,WUHU216DAVISVP2,2013-06-15 13:11:00,
2013-06-15 06:16:00,51.2,49.2,30.02,North,5,4.0,6.0,93,0.00,,,0.00,WUHU216DAVISVP2,2013-06-15 13:16:00,
2013-06-15 06:21:00,51.3,49.3,30.02,North,359,2.0,6.0,93,0.00,,,0.00,WUHU216DAVISVP2,2013-06-15 13:21:00,
2013-06-15 06:26:00,51.6,49.6,30.02,NNW,331,2.0,6.0,93,0.00,,,0.00,WUHU216DAVISVP2,2013-06-15 13:26:00,
2013-06-15 06:31:00,51.9,49.6,30.02,NNE,15,0.0,6.0,92,0.00,,,0.00,WUHU216DAVISVP2,2013-06-15 13:31:00,
2013-06-15 06:36:00,52.3,49.7,30.02,North,349,1.0,6.0,91,0.00,,,0.00,WUHU216DAVISVP2,2013-06-15 13:36:00,
2013-06-15 06:41:00,52.5,49.9,30.02,South,170,0.0,5.0,91,0.00,,,0.00,WUHU216DAVISVP2,2013-06-15 13:41:00,
2013-06-15 06:46:00,52.8,49.9,30.02,NNW,346,5.0,5.0,90,0.00,,,0.00,WUHU216DAVISVP2,2013-06-15 13:46:00,
2013-06-15 06:51:00,53.2,50.3,30.02,NNW,335,1.0,5.0,90,0.00,,,0.00,WUHU216DAVISVP2,2013-06-15 13:51:00,
2013-06-15 06:56:00,53.5,50.0,30.02,NNW,341,0.0,5.0,88,0.00,,,0.00,WUHU216DAVISVP2,2013-06-15 13:56:00,
2013-06-15 07:01:00,53.7,49.9,30.02,North,6,0.0,7.0,87,0.00,,,0.00,WUHU216DAVISVP2,2013-06-15 14:01:00,
2013-06-15 07:06:00,54.2,50.4,30.02,NNE,30,2.0,7.0,87,0.00,,,0.00,WUHU216DAVISVP2,2013-06-15 14:06:00,
2013-06-15 07:11:00,54.7,50.9,30.02,North,349,0.0,7.0,87,0.00,,,0.00,WUHU216DAVISVP2,2013-06-15 14:11:00,
2013-06-15 07:16:00,55.4,51.0,30.02,NNW,342,0.0,7.0,85,0.00,,,0.00,WUHU216DAVISVP2,2013-06-15 14:16:00,
2013-06-15 07:21:00,55.8,51.0,30.02,North,353,1.0,4.0,84,0.00,,,0.00,WUHU216DAVISVP2,2013-06-15 14:21:00,
2013-06-15 07:26:00,56.2,50.8,30.02,NNE,16,0.0,4.0,82,0.00,,,0.00,WUHU216DAVISVP2,2013-06-15 14:26:00,
2013-06-15 07:31:00,56.5,50.8,30.02,NNE,30,0.0,4.0,81,0.00,,,0.00,WUHU216DAVISVP2,2013-06-15 14:31:00,
2013-06-15 07:36:00,57.2,51.5,30.02,NNE,25,0.0,4.0,81,0.00,,,0.00,WUHU216DAVISVP2,2013-06-15 14:36:00,
2013-06-15 07:41:00,58.3,51.9,30.01,North,357,3.0,5.0,79,0.00,,,0.00,WUHU216DAVISVP2,2013-06-15 14:41:00,
2013-06-15 07:46:00,58.1,51.3,30.01,North,349,3.0,5.0,78,0.00,,,0.00,WUHU216DAVISVP2,2013-06-15 14:46:00,
2013-06-15 07:51:00,57.8,51.1,30.01,East,99,0.0,7.0,78,0.00,,,0.00,WUHU216DAVISVP2,2013-06-15 14:51:00,
2013-06-15 07:56:00,58.4,51.3,30.01,NE,34,2.0,7.0,77,0.00,,,0.00,WUHU216DAVISVP2,2013-06-15 14:56:00,
2013-06-15 08:01:00,58.4,51.0,30.01,North,359,0.0,7.0,76,0.00,,,0.00,WUHU216DAVISVP2,2013-06-15 15:01:00,
2013-06-15 08:06:00,59.0,51.9,30.01,NNW,347,3.0,7.0,77,0.00,,,0.00,WUHU216DAVISVP2,2013-06-15 15:06:00,
2013-06-15 08:11:00,59.5,51.3,30.01,ENE,61,1.0,5.0,74,0.00,,,0.00,WUHU216DAVISVP2,2013-06-15 15:11:00,
2013-06-15 08:16:00,59.9,51.0,30.01,NNW,340,1.0,6.0,72,0.00,,,0.00,WUHU216DAVISVP2,2013-06-15 15:16:00,
2013-06-15 08:21:00,60.0,51.3,30.01,NNW,340,0.0,6.0,73,0.00,,,0.00,WUHU216DAVISVP2,2013-06-15 15:21:00,
2013-06-15 08:26:00,61.1,51.4,30.01,North,6,0.0,6.0,70,0.00,,,0.00,WUHU216DAVISVP2,2013-06-15 15:26:00,
2013-06-15 08:31:00,61.5,52.9,30.02,NNE,30,0.0,6.0,73,0.00,,,0.00,WUHU216DAVISVP2,2013-06-15 15:31:00,
2013-06-15 08:36:00,61.1,52.5,30.01,ENE,65,0.0,3.0,73,0.00,,,0.00,WUHU216DAVISVP2,2013-06-15 15:36:00,
2013-06-15 08:41:00,61.1,52.9,30.02,NE,43,0.0,3.0,74,0.00,,,0.00,WUHU216DAVISVP2,2013-06-15 15:41:00,
2013-06-15 08:46:00,61.2,52.6,30.01,ENE,58,1.0,2.0,73,0.00,,,0.00,WUHU216DAVISVP2,2013-06-15 15:46:00,
2013-06-15 08:51:00,61.2,52.6,30.02,NE,43,0.0,2.0,73,0.00,,,0.00,WUHU216DAVISVP2,2013-06-15 15:51:00,
2013-06-15 08:56:00,61.3,52.3,30.02,North,352,0.0,3.0,72,0.00,,,0.00,WUHU216DAVISVP2,2013-06-15 15:56:00,
2013-06-15 09:01:00,61.3,52.3,30.02,NE,46,0.0,3.0,72,0.00,,,0.00,WUHU216DAVISVP2,2013-06-15 16:01:00,
2013-06-15 09:06:00,61.6,52.2,30.02,NNE,27,4.0,4.0,71,0.00,,,0.00,WUHU216DAVISVP2,2013-06-15 16:06:00,
2013-06-15 09:11:00,61.4,51.7,30.02,NNE,23,0.0,5.0,70,0.00,,,0.00,WUHU216DAVISVP2,2013-06-15 16:11:00,
2013-06-15 09:16:00,61.3,51.6,30.01,NE,51,1.0,5.0,70,0.00,,,0.00,WUHU216DAVISVP2,2013-06-15 16:16:00,
2013-06-15 09:21:00,61.6,51.7,30.01,NNE,13,1.0,5.0,70,0.00,,,0.00,WUHU216DAVISVP2,2013-06-15 16:21:00,
2013-06-15 09:26:00,62.1,51.8,30.01,NE,42,2.0,5.0,69,0.00,,,0.00,WUHU216DAVISVP2,2013-06-15 16:26:00,
2013-06-15 09:31:00,61.9,52.0,30.01,SW,217,0.0,6.0,70,0.00,,,0.00,WUHU216DAVISVP2,2013-06-15 16:31:00,
2013-06-15 09:36:00,62.0,51.9,30.01,North,8,2.0,6.0,69,0.00,,,0.00,WUHU216DAVISVP2,2013-06-15 16:36:00,
2013-06-15 09:41:00,62.2,52.1,30.01,NNW,336,0.0,5.0,69,0.00,,,0.00,WUHU216DAVISVP2,2013-06-15 16:41:00,
2013-06-15 09:46:00,62.5,51.9,30.01,NNW,340,0.0,5.0,68,0.00,,,0.00,WUHU216DAVISVP2,2013-06-15 16:46:00,
2013-06-15 09:51:00,62.5,51.9,30.01,NNE,23,1.0,6.0,68,0.00,,,0.00,WUHU216DAVISVP2,2013-06-15 16:51:00,
2013-06-15 09:56:00,62.7,52.1,30.01,NNW,346,2.0,6.0,68,0.00,,,0.00,WUHU216DAVISVP2,2013-06-15 16:56:00,
2013-06-15 10:01:00,62.6,52.0,30.01,ENE,67,2.0,7.0,68,0.00,,,0.00,WUHU216DAVISVP2,2013-06-15 17:01:00,
2013-06-15 10:06:00,62.8,51.8,30.01,North,350,1.0,7.0,67,0.00,,,0.00,WUHU216DAVISVP2,2013-06-15 17:06:00,
2013-06-15 10:10:00,62.7,52.1,30.01,SW,219,1.0,6.0,68,0.00,,,0.00,WUHU216DAVISVP2,2013-06-15 17:10:00,
2013-06-15 10:15:00,63.1,52.0,30.00,East,98,1.0,6.0,67,0.00,,,0.00,WUHU216DAVISVP2,2013-06-15 17:15:00,
2013-06-15 10:20:00,63.3,52.3,30.00,North,1,3.0,5.0,67,0.00,,,0.00,WUHU216DAVISVP2,2013-06-15 17:20:00,
2013-06-15 10:25:00,63.3,52.3,30.00,NNE,32,2.0,5.0,67,0.00,,,0.00,WUHU216DAVISVP2,2013-06-15 17:25:00,
2013-06-15 10:30:00,63.4,52.4,30.00,NNE,16,2.0,8.0,67,0.00,,,0.00,WUHU216DAVISVP2,2013-06-15 17:30:00,
2013-06-15 10:35:00,63.5,52.5,30.00,WNW,295,3.0,8.0,67,0.00,,,0.00,WUHU216DAVISVP2,2013-06-15 17:35:00,
2013-06-15 10:40:00,63.8,52.4,30.00,NNW,333,1.0,7.0,66,0.00,,,0.00,WUHU216DAVISVP2,2013-06-15 17:40:00,
2013-06-15 10:45:00,63.9,52.1,30.00,North,10,0.0,7.0,65,0.00,,,0.00,WUHU216DAVISVP2,2013-06-15 17:45:00,
2013-06-15 10:50:00,63.6,52.2,30.00,NNW,329,1.0,7.0,66,0.00,,,0.00,WUHU216DAVISVP2,2013-06-15 17:50:00,
2013-06-15 10:55:00,64.1,52.5,30.00,NNE,15,2.0,7.0,66,0.00,,,0.00,WUHU216DAVISVP2,2013-06-15 17:55:00,
2013-06-15 11:00:00,64.1,52.7,30.00,NNW,345,0.0,7.0,66,0.00,,,0.00,WUHU216DAVISVP2,2013-06-15 18:00:00,
2013-06-15 11:05:00,64.4,52.5,30.00,East,98,3.0,7.0,65,0.00,,,0.00,WUHU216DAVISVP2,2013-06-15 18:05:00,
2013-06-15 11:10:00,63.6,52.2,30.00,NE,47,0.0,7.0,66,0.00,,,0.00,WUHU216DAVISVP2,2013-06-15 18:10:00,
2013-06-15 11:15:00,63.2,51.4,30.00,NNW,342,3.0,10.0,65,0.00,,,0.00,WUHU216DAVISVP2,2013-06-15 18:15:00,
2013-06-15 11:20:00,62.9,51.5,29.99,North,11,2.0,10.0,66,0.00,,,0.00,WUHU216DAVISVP2,2013-06-15 18:20:00,
2013-06-15 11:25:00,63.1,51.7,29.99,North,11,1.0,9.0,66,0.00,,,0.00,WUHU216DAVISVP2,2013-06-15 18:25:00,
2013-06-15 11:30:00,63.5,51.9,29.99,ENE,58,2.0,9.0,66,0.00,,,0.00,WUHU216DAVISVP2,2013-06-15 18:30:00,
2013-06-15 11:35:00,63.9,52.3,29.99,North,355,5.0,8.0,66,0.00,,,0.00,WUHU216DAVISVP2,2013-06-15 18:35:00,
2013-06-15 11:40:00,64.2,52.8,29.99,ENE,75,0.0,8.0,66,0.00,,,0.00,WUHU216DAVISVP2,2013-06-15 18:40:00,
2013-06-15 11:45:00,64.7,52.8,30.00,NW,322,4.0,11.0,65,0.00,,,0.00,WUHU216DAVISVP2,2013-06-15 18:45:00,
2013-06-15 11:50:00,64.8,52.9,29.99,NNE,32,1.0,11.0,65,0.00,,,0.00,WUHU216DAVISVP2,2013-06-15 18:50:00,
2013-06-15 11:55:00,65.5,52.6,29.99,South,174,0.0,11.0,63,0.00,,,0.00,WUHU216DAVISVP2,2013-06-15 18:55:00,
2013-06-15 12:00:00,66.0,53.2,29.99,NE,40,1.0,10.0,63,0.00,,,0.00,WUHU216DAVISVP2,2013-06-15 19:00:00,
2013-06-15 12:05:00,66.6,53.3,29.99,NNE,20,3.0,7.0,62,0.00,,,0.00,WUHU216DAVISVP2,2013-06-15 19:05:00,
2013-06-15 12:10:00,66.2,53.0,29.99,NNE,30,0.0,8.0,62,0.00,,,0.00,WUHU216DAVISVP2,2013-06-15 19:10:00,
2013-06-15 12:15:00,66.2,52.5,29.99,NNE,23,0.0,8.0,61,0.00,,,0.00,WUHU216DAVISVP2,2013-06-15 19:15:00,
2013-06-15 12:20:00,66.3,52.6,29.99,NNE,30,2.0,8.0,61,0.00,,,0.00,WUHU216DAVISVP2,2013-06-15 19:20:00,
2013-06-15 12:25:00,66.1,52.9,29.99,NNE,18,1.0,8.0,62,0.00,,,0.00,WUHU216DAVISVP2,2013-06-15 19:25:00,
2013-06-15 12:30:00,66.8,52.9,29.99,SW,217,0.0,7.0,61,0.00,,,0.00,WUHU216DAVISVP2,2013-06-15 19:30:00,
2013-06-15 12:35:00,67.5,53.3,29.99,North,1,1.0,9.0,60,0.00,,,0.00,WUHU216DAVISVP2,2013-06-15 19:35:00,
2013-06-15 12:40:00,67.6,53.4,29.99,NNW,333,6.0,10.0,60,0.00,,,0.00,WUHU216DAVISVP2,2013-06-15 19:40:00,
2013-06-15 12:45:00,67.1,52.9,29.99,NE,45,3.0,10.0,60,0.00,,,0.00,WUHU216DAVISVP2,2013-06-15 19:45:00,
2013-06-15 12:50:00,67.0,52.8,29.99,NNE,23,1.0,9.0,60,0.00,,,0.00,WUHU216DAVISVP2,2013-06-15 19:50:00,
2013-06-15 12:55:00,67.2,52.8,29.99,WNW,285,0.0,9.0,60,0.00,,,0.00,WUHU216DAVISVP2,2013-06-15 19:55:00,
2013-06-15 13:00:00,67.6,52.8,29.99,NNW,343,0.0,9.0,59,0.00,,,0.00,WUHU216DAVISVP2,2013-06-15 20:00:00,
2013-06-15 13:05:00,67.5,52.4,29.99,NE,44,2.0,8.0,58,0.00,,,0.00,WUHU216DAVISVP2,2013-06-15 20:05:00,
2013-06-15 13:10:00,67.3,52.6,29.99,NE,37,6.0,7.0,59,0.00,,,0.00,WUHU216DAVISVP2,2013-06-15 20:10:00,
2013-06-15 13:15:00,67.0,52.8,29.99,North,355,2.0,10.0,60,0.00,,,0.00,WUHU216DAVISVP2,2013-06-15 20:15:00,
2013-06-15 13:20:00,67.3,52.6,29.98,NNE,22,1.0,10.0,59,0.00,,,0.00,WUHU216DAVISVP2,2013-06-15 20:20:00,
2013-06-15 13:25:00,67.5,52.4,29.98,NW,319,2.0,9.0,58,0.00,,,0.00,WUHU216DAVISVP2,2013-06-15 20:25:00,
2013-06-15 13:30:00,67.7,53.0,29.98,NNW,346,0.0,9.0,59,0.00,,,0.00,WUHU216DAVISVP2,2013-06-15 20:30:00,
2013-06-15 13:35:00,68.0,52.2,29.98,NE,38,2.0,9.0,57,0.00,,,0.00,WUHU216DAVISVP2,2013-06-15 20:35:00,
2013-06-15 13:40:00,68.0,52.8,29.98,NE,34,2.0,9.0,58,0.00,,,0.00,WUHU216DAVISVP2,2013-06-15 20:40:00,
2013-06-15 13:45:00,67.9,53.2,29.98,NNE,32,2.0,8.0,59,0.00,,,0.00,WUHU216DAVISVP2,2013-06-15 20:45:00,
2013-06-15 13:50:00,68.7,53.5,29.98,NW,323,4.0,10.0,58,0.00,,,0.00,WUHU216DAVISVP2,2013-06-15 20:50:00,
2013-06-15 13:55:00,69.2,52.8,29.98,NNE,13,1.0,10.0,56,0.00,,,0.00,WUHU216DAVISVP2,2013-06-15 20:55:00,
2013-06-15 14:00:00,69.7,53.3,29.98,NNE,23,0.0,10.0,56,0.00,,,0.00,WUHU216DAVISVP2,2013-06-15 21:00:00,
2013-06-15 14:05:00,69.7,53.4,29.98,North,11,1.0,9.0,56,0.00,,,0.00,WUHU216DAVISVP2,2013-06-15 21:05:00,
2013-06-15 14:10:00,69.7,52.9,29.98,ENE,70,5.0,5.0,55,0.00,,,0.00,WUHU216DAVISVP2,2013-06-15 21:10:00,
2013-06-15 14:15:00,69.5,53.3,29.98,SSE,150,2.0,8.0,56,0.00,,,0.00,WUHU216DAVISVP2,2013-06-15 21:15:00,
2013-06-15 14:20:00,69.6,52.8,29.97,North,349,2.0,8.0,55,0.00,,,0.00,WUHU216DAVISVP2,2013-06-15 21:20:00,
2013-06-15 14:25:00,70.0,53.7,29.97,East,82,1.0,8.0,56,0.00,,,0.00,WUHU216DAVISVP2,2013-06-15 21:25:00,
2013-06-15 14:30:00,69.9,53.0,29.97,NNE,24,2.0,7.0,55,0.00,,,0.00,WUHU216DAVISVP2,2013-06-15 21:30:00,
2013-06-15 14:35:00,69.9,53.1,29.97,NNE,25,1.0,7.0,55,0.00,,,0.00,WUHU216DAVISVP2,2013-06-15 21:35:00,
2013-06-15 14:40:00,70.1,53.3,29.97,North,1,2.0,6.0,55,0.00,,,0.00,WUHU216DAVISVP2,2013-06-15 21:40:00,
2013-06-15 14:45:00,69.9,53.1,29.97,NNW,340,0.0,6.0,55,0.00,,,0.00,WUHU216DAVISVP2,2013-06-15 21:45:00,
2013-06-15 14:50:00,70.2,53.9,29.97,NNE,30,1.0,4.0,56,0.00,,,0.00,WUHU216DAVISVP2,2013-06-15 21:50:00,
2013-06-15 14:55:00,70.7,53.4,29.97,NNE,27,3.0,6.0,54,0.00,,,0.00,WUHU216DAVISVP2,2013-06-15 21:55:00,
2013-06-15 15:00:00,70.2,52.9,29.97,NW,316,1.0,8.0,54,0.00,,,0.00,WUHU216DAVISVP2,2013-06-15 22:00:00,
2013-06-15 15:05:00,69.7,52.4,29.97,NNW,345,5.0,10.0,54,0.00,,,0.00,WUHU216DAVISVP2,2013-06-15 22:05:00,
2013-06-15 15:10:00,69.0,52.6,29.97,North,353,1.0,11.0,56,0.00,,,0.00,WUHU216DAVISVP2,2013-06-15 22:10:00,
2013-06-15 15:15:00,69.1,52.4,29.97,North,6,2.0,11.0,55,0.00,,,0.00,WUHU216DAVISVP2,2013-06-15 22:15:00,
2013-06-15 15:20:00,69.5,52.8,29.97,NW,322,2.0,10.0,55,0.00,,,0.00,WUHU216DAVISVP2,2013-06-15 22:20:00,
2013-06-15 15:25:00,70.2,53.4,29.97,North,5,0.0,10.0,55,0.00,,,0.00,WUHU216DAVISVP2,2013-06-15 22:25:00,
2013-06-15 15:30:00,70.2,53.4,29.97,NNW,330,2.0,9.0,55,0.00,,,0.00,WUHU216DAVISVP2,2013-06-15 22:30:00,
2013-06-15 15:35:00,70.7,53.4,29.97,NNE,15,5.0,8.0,54,0.00,,,0.00,WUHU216DAVISVP2,2013-06-15 22:35:00,
2013-06-15 15:40:00,71.0,53.0,29.97,East,85,1.0,8.0,53,0.00,,,0.00,WUHU216DAVISVP2,2013-06-15 22:40:00,
2013-06-15 15:45:00,70.7,52.7,29.97,NNE,25,4.0,9.0,53,0.00,,,0.00,WUHU216DAVISVP2,2013-06-15 22:45:00,
2013-06-15 15:50:00,70.3,52.5,29.97,NE,45,1.0,9.0,53,0.00,,,0.00,WUHU216DAVISVP2,2013-06-15 22:50:00,
2013-06-15 15:55:00,69.9,51.5,29.97,NNE,18,1.0,8.0,52,0.00,,,0.00,WUHU216DAVISVP2,2013-06-15 22:55:00,
2013-06-15 16:00:00,69.6,51.7,29.97,NNE,15,1.0,8.0,53,0.00,,,0.00,WUHU216DAVISVP2,2013-06-15 23:00:00,
2013-06-15 16:05:00,69.4,51.6,29.97,SSW,203,1.0,8.0,53,0.00,,,0.00,WUHU216DAVISVP2,2013-06-15 23:05:00,
2013-06-15 16:10:00,69.1,51.9,29.96,NE,55,1.0,7.0,54,0.00,,,0.00,WUHU216DAVISVP2,2013-06-15 23:10:00,
2013-06-15 16:15:00,69.3,51.4,29.96,NNE,18,1.0,7.0,53,0.00,,,0.00,WUHU216DAVISVP2,2013-06-15 23:15:00,
2013-06-15 16:20:00,69.3,51.4,29.96,NW,312,2.0,6.0,53,0.00,,,0.00,WUHU216DAVISVP2,2013-06-15 23:20:00,
2013-06-15 16:25:00,69.3,52.1,29.96,NNE,13,0.0,6.0,54,0.00,,,0.00,WUHU216DAVISVP2,2013-06-15 23:25:00,
2013-06-15 16:30:00,69.0,51.3,29.96,NNE,19,6.0,8.0,53,0.00,,,0.00,WUHU216DAVISVP2,2013-06-15 23:30:00,
2013-06-15 16:35:00,69.0,51.2,29.96,ESE,110,0.0,8.0,53,0.00,,,0.00,WUHU216DAVISVP2,2013-06-15 23:35:00,
2013-06-15 16:40:00,68.8,51.6,29.96,WNW,302,4.0,8.0,54,0.00,,,0.00,WUHU216DAVISVP2,2013-06-15 23:40:00,
2013-06-15 16:45:00,68.7,51.5,29.97,WNW,296,3.0,9.0,54,0.00,,,0.00,WUHU216DAVISVP2,2013-06-15 23:45:00,
2013-06-15 16:50:00,68.6,51.9,29.97,SW,228,1.0,9.0,55,0.00,,,0.00,WUHU216DAVISVP2,2013-06-15 23:50:00,
2013-06-15 16:55:00,68.3,52.1,29.97,NNE,15,1.0,8.0,56,0.00,,,0.00,WUHU216DAVISVP2,2013-06-15 23:55:00,
2013-06-15 17:00:00,68.6,52.3,29.97,NE,41,4.0,8.0,56,0.00,,,0.00,WUHU216DAVISVP2,2013-06-16 00:00:00,
2013-06-15 17:05:00,69.0,52.3,29.97,NNE,29,0.0,7.0,55,0.00,,,0.00,WUHU216DAVISVP2,2013-06-16 00:05:00,
2013-06-15 17:10:00,69.6,51.8,29.97,NNE,28,6.0,8.0,53,0.00,,,0.00,WUHU216DAVISVP2,2013-06-16 00:10:00,
2013-06-15 17:15:00,68.9,51.2,29.97,North,357,1.0,10.0,53,0.00,,,0.00,WUHU216DAVISVP2,2013-06-16 00:15:00,
2013-06-15 17:20:00,69.0,50.7,29.97,NE,34,3.0,10.0,52,0.00,,,0.00,WUHU216DAVISVP2,2013-06-16 00:20:00,
2013-06-15 17:25:00,68.8,51.5,29.97,NNE,19,1.0,10.0,54,0.00,,,0.00,WUHU216DAVISVP2,2013-06-16 00:25:00,
2013-06-15 17:30:00,69.3,51.4,29.97,North,11,0.0,9.0,53,0.00,,,0.00,WUHU216DAVISVP2,2013-06-16 00:30:00,
2013-06-15 17:35:00,69.8,50.4,29.97,North,8,0.0,9.0,50,0.00,,,0.00,WUHU216DAVISVP2,2013-06-16 00:35:00,
2013-06-15 17:40:00,69.9,48.2,29.97,NE,46,2.0,9.0,46,0.00,,,0.00,WUHU216DAVISVP2,2013-06-16 00:40:00,
2013-06-15 17:45:00,69.8,48.7,29.97,NNE,20,5.0,9.0,47,0.00,,,0.00,WUHU216DAVISVP2,2013-06-16 00:45:00,
2013-06-15 17:50:00,69.6,50.1,29.97,NNE,25,8.0,9.0,50,0.00,,,0.00,WUHU216DAVISVP2,2013-06-16 00:50:00,
2013-06-15 17:55:00,69.9,48.8,29.97,North,352,5.0,8.0,47,0.00,,,0.00,WUHU216DAVISVP2,2013-06-16 00:55:00,
2013-06-15 18:00:00,70.1,48.9,29.97,North,1,1.0,8.0,47,0.00,,,0.00,WUHU216DAVISVP2,2013-06-16 01:00:00,
2013-06-15 18:05:00,70.5,48.7,29.97,NNE,17,1.0,8.0,46,0.00,,,0.00,WUHU216DAVISVP2,2013-06-16 01:05:00,
2013-06-15 18:10:00,70.5,48.7,29.97,NNE,30,3.0,6.0,46,0.00,,,0.00,WUHU216DAVISVP2,2013-06-16 01:10:00,
2013-06-15 18:15:00,70.5,48.7,29.97,NNE,18,0.0,6.0,46,0.00,,,0.00,WUHU216DAVISVP2,2013-06-16 01:15:00,
2013-06-15 18:20:00,70.6,48.8,29.97,NNE,23,0.0,5.0,46,0.00,,,0.00,WUHU216DAVISVP2,2013-06-16 01:20:00,
2013-06-15 18:25:00,70.6,48.8,29.97,North,8,5.0,7.0,46,0.00,,,0.00,WUHU216DAVISVP2,2013-06-16 01:25:00,
2013-06-15 18:30:00,70.1,48.3,29.97,North,355,2.0,8.0,46,0.00,,,0.00,WUHU216DAVISVP2,2013-06-16 01:30:00,
2013-06-15 18:35:00,69.8,48.7,29.97,North,8,1.0,8.0,47,0.00,,,0.00,WUHU216DAVISVP2,2013-06-16 01:35:00,
2013-06-15 18:40:00,70.0,49.4,29.97,NNE,17,1.0,7.0,48,0.00,,,0.00,WUHU216DAVISVP2,2013-06-16 01:40:00,
2013-06-15 18:45:00,69.7,49.2,29.97,NNW,340,2.0,7.0,48,0.00,,,0.00,WUHU216DAVISVP2,2013-06-16 01:45:00,
2013-06-15 18:50:00,69.3,49.9,29.97,NNE,30,0.0,7.0,50,0.00,,,0.00,WUHU216DAVISVP2,2013-06-16 01:50:00,
2013-06-15 18:55:00,69.1,50.8,29.97,NNE,23,0.0,6.0,52,0.00,,,0.00,WUHU216DAVISVP2,2013-06-16 01:55:00,
2013-06-15 19:00:00,69.1,50.8,29.97,NNE,15,0.0,6.0,52,0.00,,,0.00,WUHU216DAVISVP2,2013-06-16 02:00:00,
2013-06-15 19:05:00,69.2,50.9,29.97,NE,42,0.0,5.0,52,0.00,,,0.00,WUHU216DAVISVP2,2013-06-16 02:05:00,
2013-06-15 19:10:00,68.9,50.6,29.97,NNE,27,3.0,5.0,52,0.00,,,0.00,WUHU216DAVISVP2,2013-06-16 02:10:00,
2013-06-15 19:15:00,68.6,50.9,29.97,NE,34,1.0,3.0,53,0.00,,,0.00,WUHU216DAVISVP2,2013-06-16 02:15:00,
2013-06-15 19:20:00,68.3,51.1,29.98,NNW,338,1.0,3.0,54,0.00,,,0.00,WUHU216DAVISVP2,2013-06-16 02:20:00,
2013-06-15 19:25:00,68.2,51.0,29.98,NE,41,0.0,3.0,54,0.00,,,0.00,WUHU216DAVISVP2,2013-06-16 02:25:00,
2013-06-15 19:30:00,68.1,50.9,29.98,North,351,3.0,3.0,54,0.00,,,0.00,WUHU216DAVISVP2,2013-06-16 02:30:00,
2013-06-15 19:35:00,67.9,51.3,29.98,NE,34,0.0,3.0,55,0.00,,,0.00,WUHU216DAVISVP2,2013-06-16 02:35:00,
2013-06-15 19:40:00,67.8,51.2,29.98,North,6,0.0,3.0,55,0.00,,,0.00,WUHU216DAVISVP2,2013-06-16 02:40:00,
2013-06-15 19:45:00,67.6,51.5,29.98,ESE,117,0.0,4.0,56,0.00,,,0.00,WUHU216DAVISVP2,2013-06-16 02:45:00,
2013-06-15 19:50:00,67.4,51.3,29.98,North,3,0.0,4.0,56,0.00,,,0.00,WUHU216DAVISVP2,2013-06-16 02:50:00,
2013-06-15 19:55:00,67.2,51.4,29.98,North,6,0.0,4.0,57,0.00,,,0.00,WUHU216DAVISVP2,2013-06-16 02:55:00,
2013-06-15 20:00:00,67.0,51.9,29.98,NNE,22,0.0,3.0,58,0.00,,,0.00,WUHU216DAVISVP2,2013-06-16 03:00:00,
2013-06-15 20:05:00,66.8,51.7,29.97,ENE,58,1.0,3.0,58,0.00,,,0.00,WUHU216DAVISVP2,2013-06-16 03:05:00,
2013-06-15 20:10:00,66.5,51.4,29.98,NE,41,0.0,2.0,58,0.00,,,0.00,WUHU216DAVISVP2,2013-06-16 03:10:00,
2013-06-15 20:15:00,66.2,51.6,29.98,NNE,17,0.0,2.0,59,0.00,,,0.00,WUHU216DAVISVP2,2013-06-16 03:15:00,
2013-06-15 20:20:00,66.0,51.9,29.98,NNE,13,0.0,2.0,60,0.00,,,0.00,WUHU216DAVISVP2,2013-06-16 03:20:00,
2013-06-15 20:25:00,65.8,51.7,29.98,NNE,32,1.0,2.0,60,0.00,,,0.00,WUHU216DAVISVP2,2013-06-16 03:25:00,
2013-06-15 20:30:00,65.6,51.9,29.98,NNE,20,0.0,1.0,61,0.00,,,0.00,WUHU216DAVISVP2,2013-06-16 03:30:00,
2013-06-15 20:35:00,65.5,51.9,29.98,North,9,0.0,2.0,61,0.00,,,0.00,WUHU216DAVISVP2,2013-06-16 03:35:00,
2013-06-15 20:40:00,65.4,52.2,29.98,North,8,0.0,2.0,62,0.00,,,0.00,WUHU216DAVISVP2,2013-06-16 03:40:00,
2013-06-15 20:44:00,65.2,51.8,29.98,North,11,0.0,2.0,62,0.00,,,0.00,WUHU216DAVISVP2,2013-06-16 03:44:00,
2013-06-15 20:49:00,65.0,51.8,29.98,NNE,12,0.0,2.0,62,0.00,,,0.00,WUHU216DAVISVP2,2013-06-16 03:49:00,
2013-06-15 20:54:00,64.8,52.1,29.98,NNE,12,0.0,1.0,63,0.00,,,0.00,WUHU216DAVISVP2,2013-06-16 03:54:00,
2013-06-15 20:59:00,64.5,52.2,29.99,North,11,0.0,1.0,64,0.00,,,0.00,WUHU216DAVISVP2,2013-06-16 03:59:00,
2013-06-15 21:01:00,64.4,52.1,29.99,NNE,12,0.0,1.0,64,0.00,,,0.00,WUHU216DAVISVP2,2013-06-16 04:01:00,
2013-06-15 21:06:00,64.1,52.3,29.99,NNE,12,0.0,1.0,65,0.00,,,0.00,WUHU216DAVISVP2,2013-06-16 04:06:00,
2013-06-15 21:11:00,63.8,52.0,29.99,North,11,1.0,1.0,65,0.00,,,0.00,WUHU216DAVISVP2,2013-06-16 04:11:00,
2013-06-15 21:16:00,63.6,51.8,29.99,NNE,12,0.0,1.0,65,0.00,,,0.00,WUHU216DAVISVP2,2013-06-16 04:16:00,
2013-06-15 21:21:00,63.3,51.7,29.99,NNE,13,0.0,1.0,66,0.00,,,0.00,WUHU216DAVISVP2,2013-06-16 04:21:00,
2013-06-15 21:26:00,63.1,51.7,29.99,NNE,13,0.0,1.0,66,0.00,,,0.00,WUHU216DAVISVP2,2013-06-16 04:26:00,
2013-06-15 21:31:00,62.8,51.8,29.99,NNE,13,0.0,1.0,67,0.00,,,0.00,WUHU216DAVISVP2,2013-06-16 04:31:00,
2013-06-15 21:36:00,62.6,52.0,30.00,NNE,13,0.0,1.0,68,0.00,,,0.00,WUHU216DAVISVP2,2013-06-16 04:36:00,
2013-06-15 21:41:00,62.3,51.8,30.00,NNE,13,0.0,1.0,68,0.00,,,0.00,WUHU216DAVISVP2,2013-06-16 04:41:00,
2013-06-15 21:46:00,62.2,51.7,30.00,NNE,13,0.0,1.0,68,0.00,,,0.00,WUHU216DAVISVP2,2013-06-16 04:46:00,
2013-06-15 21:51:00,62.0,51.9,30.00,NNE,13,0.0,1.0,69,0.00,,,0.00,WUHU216DAVISVP2,2013-06-16 04:51:00,
2013-06-15 21:56:00,62.0,51.9,30.00,NNE,15,0.0,1.0,69,0.00,,,0.00,WUHU216DAVISVP2,2013-06-16 04:56:00,
2013-06-15 22:01:00,61.8,51.5,30.00,NNE,15,0.0,1.0,69,0.00,,,0.00,WUHU216DAVISVP2,2013-06-16 05:01:00,
2013-06-15 22:06:00,61.6,51.7,30.00,NNE,15,0.0,2.0,70,0.00,,,0.00,WUHU216DAVISVP2,2013-06-16 05:06:00,
2013-06-15 22:11:00,61.7,52.0,30.00,North,11,0.0,2.0,70,0.00,,,0.00,WUHU216DAVISVP2,2013-06-16 05:11:00,
2013-06-15 22:16:00,61.8,52.1,30.00,NNE,19,0.0,2.0,70,0.00,,,0.00,WUHU216DAVISVP2,2013-06-16 05:16:00,
2013-06-15 22:21:00,61.7,52.0,30.00,NNE,25,0.0,2.0,70,0.00,,,0.00,WUHU216DAVISVP2,2013-06-16 05:21:00,
2013-06-15 22:26:00,61.6,51.9,30.00,NNE,26,0.0,1.0,70,0.00,,,0.00,WUHU216DAVISVP2,2013-06-16 05:26:00,
2013-06-15 22:31:00,61.3,52.0,30.00,NNE,22,0.0,1.0,71,0.00,,,0.00,WUHU216DAVISVP2,2013-06-16 05:31:00,
2013-06-15 22:36:00,61.1,51.8,30.01,NNE,22,0.0,0.0,71,0.00,,,0.00,WUHU216DAVISVP2,2013-06-16 05:36:00,
2013-06-15 22:41:00,60.8,51.5,30.00,NNE,22,0.0,0.0,71,0.00,,,0.00,WUHU216DAVISVP2,2013-06-16 05:41:00,
2013-06-15 22:46:00,60.5,51.6,30.01,NNE,22,0.0,0.0,72,0.00,,,0.00,WUHU216DAVISVP2,2013-06-16 05:46:00,
2013-06-15 22:51:00,60.2,51.6,30.01,NNE,22,0.0,0.0,73,0.00,,,0.00,WUHU216DAVISVP2,2013-06-16 05:51:00,
2013-06-15 22:56:00,60.0,51.7,30.01,NNE,22,0.0,0.0,74,0.00,,,0.00,WUHU216DAVISVP2,2013-06-16 05:56:00,
2013-06-15 23:01:00,59.7,51.4,30.01,NNE,22,0.0,0.0,74,0.00,,,0.00,WUHU216DAVISVP2,2013-06-16 06:01:00,
2013-06-15 23:06:00,59.6,51.8,30.01,NNE,22,0.0,0.0,75,0.00,,,0.00,WUHU216DAVISVP2,2013-06-16 06:06:00,
2013-06-15 23:11:00,59.7,51.9,30.01,NNE,22,0.0,0.0,75,0.00,,,0.00,WUHU216DAVISVP2,2013-06-16 06:11:00,
2013-06-15 23:16:00,59.5,51.7,30.01,NNE,22,0.0,0.0,75,0.00,,,0.00,WUHU216DAVISVP2,2013-06-16 06:16:00,
2013-06-15 23:21:00,59.3,51.8,30.02,NNE,22,0.0,0.0,76,0.00,,,0.00,WUHU216DAVISVP2,2013-06-16 06:21:00,
2013-06-15 23:26:00,59.2,51.7,30.02,NNE,21,0.0,0.0,76,0.00,,,0.00,WUHU216DAVISVP2,2013-06-16 06:26:00,
2013-06-15 23:31:00,59.3,52.2,30.02,NNE,22,0.0,0.0,77,0.00,,,0.00,WUHU216DAVISVP2,2013-06-16 06:31:00,
2013-06-15 23:36:00,59.5,52.0,30.02,WSW,254,0.0,1.0,76,0.00,,,0.00,WUHU216DAVISVP2,2013-06-16 06:36:00,
2013-06-15 23:41:00,59.7,52.1,30.02,WSW,252,0.0,1.0,76,0.00,,,0.00,WUHU216DAVISVP2,2013-06-16 06:41:00,
2013-06-15 23:46:00,59.6,52.4,30.02,SW,226,1.0,1.0,77,0.00,,,0.00,WUHU216DAVISVP2,2013-06-16 06:46:00,
2013-06-15 23:51:00,59.5,52.7,30.03,West,260,0.0,1.0,78,0.00,,,0.00,WUHU216DAVISVP2,2013-06-16 06:51:00,
2013-06-15 23:56:00,59.3,52.5,30.03,WSW,254,0.0,1.0,78,0.00,,,0.00,WUHU216DAVISVP2,2013-06-16 06:56:00,